USA 170

Last updated on Thu Oct 30 2025 00:02:47 GMT+0000 (Coordinated Universal Time)

1 27875U 03040A 25301.98864279 .00000140 00000+0 00000+0 0 9993 2 27875 10.0081 50.0860 0002469 199.7078 167.8683 1.00271147 30670
UTC large
Height (km)
Speed (km/s)
/
Latitude / Longitude
Inclination (degrees)
Orbital Period (minutes)
Azimuth
Elevation
Range (km)
Doppler Factor

Next 0 passes for location: London (51.5072 / 0.1276)

Sorry there are no passes over London.